Regional Weather Roundup
Issued by NWS

Home | Current Version | Previous Version | Graphics & Text | Print | Product List | Glossary On
Versions: 1 2 3 4 5 6 7 8 9 10 11 12 13 14 15 16 17 18 19 20 21 22 23 24 25 26 27 28 29 30 31 32 33 34 35 36 37 38 39 40 41 42 43 44 45 46 47 48 49 50
000
ASUS43 KLMK 181810
RWRKY
KENTUCKY REGIONAL WEATHER ROUNDUP
NATIONAL WEATHER SERVICE LOUISVILLE KY
100 PM EST THU JAN 18 2018

NOTE "FAIR" INDICATES FEW OR NO CLOUDS BELOW 12,000 FEET
WITH NO SIGNIFICANT WEATHER AND/OR OBSTRUCTIONS TO VISIBILITY.

KYZ001>023-026-027-061>063-070>075-181900-
WESTERN AND SOUTH CENTRAL KENTUCKY

CITY           SKY/WX    TMP DP  RH WIND       PRES   REMARKS
PADUCAH        FAIR      25  11  55 SW9       30.45F WCI  15
HENDERSON      FAIR      27  15  61 S10       30.42F WCI  17
OWENSBORO      FAIR      26  15  63 S9        30.43F WCI  17
HOPKINSVILLE   FAIR      27  15  58 SW9       30.45F WCI  18
BOWLING GREEN  FAIR      23  12  62 SW13      30.48F WCI  11
GLASGOW        FAIR      28  12  52 SW8       30.45F WCI  20
$$

KYZ024-025-028>034-038-045-046-053-181900-
NORTH CENTRAL KENTUCKY

CITY           SKY/WX    TMP DP  RH WIND       PRES   REMARKS
LOUISVILLE/SDF FAIR      27  12  53 SW13      30.39F WCI  16
LOUISVILLE/LOU FAIR      26  13  57 SW13      30.40F WCI  15
FORT KNOX      FAIR      26  12  54 S12       30.37F WCI  16
$$

KYZ035>037-039>044-047>052-055>060-089>105-181900-
NORTHEAST KENTUCKY

CITY           SKY/WX    TMP DP  RH WIND       PRES   REMARKS
LEXINGTON      FAIR      23  13  65 SW13      30.37F WCI  11
COVINGTON      FAIR      25  14  63 SW15      30.28F WCI  13
FRANKFORT      FAIR      24  10  55 SW13      30.37F WCI  12
$$

KYZ054-064>069-076>088-106>120-181900-
SOUTHEAST KENTUCKY

CITY           SKY/WX    TMP DP  RH WIND       PRES   REMARKS
JACKSON        FAIR      25  12  58 S5        30.37F WCI  19
LONDON         FAIR      22  11  62 SW8       30.42F WCI  12
SOMERSET       FAIR      27  12  54 SW8       30.46F WCI  18
MIDDLESBORO    FAIR      26  14  60 CALM      30.44F
MONTICELLO     FAIR      31  15  52 W13       30.46F WCI  21
$$




USA.gov is the U.S. government's official web portal to all federal, state and local government web resources and services.